Theta_e
326 326 325 325 325 324 323 322 322 322 322 322 322 323 323 324 324 323 323 323 323 323 323 323 323 322 322 322 322 321 321 321 321 321 321 321 320 320 320 319 320 320
325 324 323 324 323 322 323 323 322 322 322 322 322 323 323 323 323 324 324 323 323 323 323 323 323 322 322 322 322 321 321 321 320 321 321 320 320 320 320 320 320 320
324 323 323 322 322 322 322 321 321 321 321 321 321 322 322 322 323 322 324 324 323 323 323 323 323 322 322 322 321 321 320 320 320 321 320 320 320 320 320 320 320 319
323 323 323 322 322 321 320 319 318 319 319 319 320 321 321 321 321 321 322 319 323 323 323 323 323 323 322 322 321 321 320 320 321 320 319 319 319 320 320 320 319 320
322 322 322 322 321 320 318 318 318 318 318 320 320 318 317 317 317 318 318 319 320 321 321 321 322 322 322 322 321 321 320 320 320 320 319 319 320 319 320 319 319 319
319 320 320 320 319 318 317 317 318 318 318 317 318 317 316 315 315 315 315 315 315 317 317 318 319 320 321 321 321 321 321 320 320 320 319 319 319 319 319 319 318 318
315 316 317 318 318 318 318 317 318 317 317 318 314 313 313 312 312 313 312 312 312 312 313 314 315 316 318 318 319 319 320 320 320 319 318 319 318 318 318 318 317 317
312 313 316 317 317 317 316 317 316 315 315 312 312 313 310 311 310 310 309 309 309 310 310 311 311 313 313 314 316 317 317 319 319 318 317 318 317 317 317 318 317 317
311 311 312 313 314 314 314 315 314 312 309 310 310 308 305 308 308 307 307 306 306 307 307 307 309 310 310 311 313 315 315 316 317 317 317 316 316 316 317 316 316 316
308 308 308 309 311 312 312 311 310 307 304 307 307 304 305 303 302 303 303 303 304 302 302 305 305 305 306 307 311 312 312 314 314 315 316 316 316 316 315 315 315 315
306 306 307 307 309 309 308 306 302 302 302 304 302 302 301 301 300 299 300 301 304 302 302 301 302 303 304 305 306 306 309 311 312 312 313 314 314 315 310 314 314 315
304 302 304 306 306 304 303 301 300 300 300 299 301 302 299 298 300 297 300 299 298 299 299 300 300 300 300 301 302 302 303 304 304 306 308 310 311 312 313 313 315 316
300 301 303 301 300 299 295 296 297 295 296 298 294 297 298 296 293 295 292 295 295 296 297 297 298 298 299 299 301 304 304 303 303 303 303 304 305 306 309 312 314 315
298 297 295 297 294 292 293 292 291 290 292 290 289 294 293 292 292 294 287 289 290 291 293 293 293 296 298 300 302 304 303 302 304 304 303 302 302 301 302 305 307 309
295 291 292 292 290 291 291 292 292 289 288 289 288 288 289 286 289 289 288 289 287 288 290 291 294 298 300 298 299 301 302 304 305 304 301 301 301 299 300 302 305 306
291 291 291 289 290 291 290 289 289 289 289 289 288 286 285 285 287 289 291 292 293 292 293 296 296 300 292 291 294 296 296 298 300 299 299 300 299 299 299 300 302 303
290 292 290 291 292 289 289 290 290 288 288 288 286 285 287 288 290 292 291 293 293 293 293 297 299 294 291 295 294 294 293 296 299 301 302 297 296 298 298 297 298 299
292 292 291 291 289 291 290 289 288 288 288 287 285 287 287 290 291 291 291 292 294 293 293 294 292 290 293 293 293 294 292 292 295 297 299 299 297 297 296 295 296 296
291 292 291 290 290 290 289 288 288 288 288 287 288 288 289 291 292 292 292 291 293 293 292 290 289 290 292 292 292 293 293 292 292 294 296 296 295 295 294 295 294 294
291 291 291 291 289 288 288 288 289 290 288 288 288 288 291 291 291 291 291 292 292 291 289 289 288 290 291 292 292 292 293 293 294 296 297 295 294 294 294 292 293 293
291 291 292 290 289 289 289 289 289 288 288 287 289 291 292 291 291 291 292 291 291 290 288 288 289 290 291 291 292 292 292 292 294 296 293 292 292 291 290 290 290 291
292 292 292 290 289 289 289 289 288 288 288 288 289 290 290 290 290 291 291 291 290 289 288 287 288 290 290 290 291 291 291 291 292 292 291 291 290 290 289 289 289 289
292 292 291 290 290 290 290 289 288 287 288 288 290 289 290 290 290 290 290 290 289 289 288 287 287 288 289 289 290 291 290 288 289 291 291 290 289 288 288 287 288 288
292 292 292 290 290 290 290 289 287 287 288 288 290 289 289 289 290 289 289 289 289 288 287 287 286 286 288 289 290 290 289 288 289 290 289 289 288 287 287 287 286 285
291 291 291 290 290 290 289 288 288 288 288 288 288 289 289 289 289 289 288 288 288 287 285 285 284 284 287 289 290 290 288 287 289 289 288 288 288 287 287 286 286 286
290 290 290 290 290 289 288 288 287 287 287 288 288 289 288 288 288 288 287 286 285 284 284 282 282 282 284 289 288 289 289 288 288 289 288 287 287 287 286 286 286 286
Wind_Speed
14 12 13 12 12 10 9 9 8 9 9 8 9 9 10 10 8 8 9 9 10 10 10 10 9 9 10 9 9 9 9 10 10 9 10 10 10 11 11 12 12 11
15 14 12 11 10 9 9 8 9 9 10 9 9 8 8 7 8 9 10 10 10 11 10 10 10 10 10 9 9 9 9 9 11 8 10 11 11 11 12 13 12 11
13 13 13 13 12 12 11 9 9 9 9 9 8 8 8 8 9 8 9 10 10 11 10 10 10 10 10 10 9 9 9 10 11 10 9 11 10 11 11 11 10 11
14 14 14 14 12 11 10 9 8 8 7 7 9 9 9 7 7 8 9 10 10 10 10 9 10 9 9 9 9 8 9 10 10 9 9 8 9 10 11 9 10 10
14 14 12 11 10 10 8 9 9 9 9 10 9 8 8 8 7 8 8 9 9 9 8 9 8 9 8 8 8 9 9 9 9 8 9 9 10 9 9 9 10 11
9 10 10 10 10 9 9 9 10 9 10 8 10 8 7 7 8 8 8 8 8 8 8 7 7 8 8 8 8 9 9 9 9 9 9 11 10 9 8 9 10 11
10 9 10 9 9 10 11 11 10 9 9 9 6 7 7 7 7 7 7 7 6 6 7 7 7 7 7 7 7 8 9 10 9 8 10 10 9 10 9 9 10 10
9 8 10 9 10 10 10 10 9 9 9 6 7 8 7 7 7 6 5 5 5 5 5 5 5 6 5 5 7 8 9 8 8 8 9 10 8 10 9 8 8 10
7 8 8 9 10 9 10 10 10 9 7 8 8 7 5 6 6 6 5 5 5 5 4 4 5 5 5 6 7 8 8 8 8 8 9 10 10 10 10 8 8 9
8 8 7 8 9 10 11 10 9 7 6 7 6 5 6 4 4 4 4 4 4 4 4 4 4 4 4 4 6 6 7 7 7 8 8 9 9 9 8 8 9 9
9 9 10 11 11 10 11 9 7 7 6 6 5 5 4 5 3 3 4 4 5 4 3 3 3 3 3 3 3 4 5 5 6 6 7 7 8 8 8 8 9 10
9 8 9 11 11 9 9 8 8 7 6 5 6 6 5 4 5 3 3 3 3 2 1 1 1 1 2 2 2 2 2 3 3 4 4 5 5 6 6 6 8 8
8 9 10 8 8 7 5 6 7 6 7 6 5 6 6 5 4 4 2 3 2 2 1 1 1 0 0 1 1 0 0 0 1 1 1 2 2 3 3 4 5 5
9 7 6 7 5 4 5 5 4 4 5 5 6 5 5 4 4 4 3 3 3 2 2 1 1 1 1 1 1 1 1 1 1 0 0 1 1 2 2 2 2 2
6 5 4 4 4 4 4 4 4 4 4 5 4 4 4 3 4 5 4 3 3 2 1 1 1 2 2 1 1 2 2 2 2 2 1 1 1 1 1 1 1 2
5 5 5 5 5 5 5 4 5 5 5 5 4 4 4 4 4 3 3 3 3 1 0 0 1 2 2 4 3 2 3 3 3 3 2 2 2 2 2 1 1 1
5 6 5 6 6 5 5 6 6 5 5 5 5 5 5 5 5 5 4 4 3 2 2 3 2 2 2 3 3 3 1 1 2 3 3 3 3 3 3 3 3 3
7 6 6 6 6 7 6 6 5 6 6 6 5 5 5 5 4 4 4 4 4 3 3 3 3 2 3 3 3 2 0 1 2 2 3 2 2 2 3 3 3 3
7 7 7 6 7 6 6 6 6 6 6 6 7 5 5 5 5 5 4 4 5 5 4 4 3 2 2 2 2 2 2 1 2 3 2 3 2 2 2 3 3 3
7 7 7 7 6 6 6 6 7 8 6 5 5 5 6 6 5 6 5 6 5 5 5 4 3 2 2 2 2 2 1 1 1 1 2 1 1 1 1 1 0 0
7 7 8 7 7 7 7 7 7 6 6 6 7 7 7 7 7 6 6 5 5 5 5 4 3 2 3 2 2 1 1 0 1 1 2 3 3 3 3 2 2 3
8 9 8 7 7 7 8 8 7 8 8 6 6 5 4 4 3 4 5 6 6 6 5 4 2 3 2 2 2 1 1 1 2 3 4 3 4 4 3 3 3 3
10 10 9 9 9 9 9 8 8 8 6 6 7 6 6 6 6 4 5 6 6 5 6 4 3 1 2 2 1 2 2 2 3 4 4 4 4 4 4 3 3 2
11 11 11 10 10 11 11 8 6 5 7 7 9 8 7 6 6 5 5 5 6 5 5 5 3 1 2 1 2 5 5 4 4 5 4 4 4 3 3 3 4 5
11 10 10 10 11 10 9 9 9 9 6 6 5 6 6 5 6 6 5 4 5 5 5 6 3 1 1 3 6 6 4 4 5 5 5 4 4 3 2 2 2 3
9 10 10 11 11 9 8 8 7 7 8 8 6 6 6 6 6 6 6 5 5 5 4 4 4 1 2 6 6 7 6 4 4 6 6 5 4 4 3 3 3 2
Wind_Direction
216 215 220 221 225 222 218 212 210 214 217 214 211 215 215 220 212 205 207 210 212 214 215 216 212 213 217 215 211 212 215 219 223 222 222 222 227 227 231 233 231 229
216 216 218 220 225 222 223 215 213 210 216 212 214 215 217 212 213 206 207 208 211 215 215 215 212 213 213 214 212 211 216 219 226 220 223 221 227 226 232 233 233 232
214 216 217 217 218 216 216 213 209 210 212 213 212 212 216 209 210 204 205 206 209 215 217 216 214 214 214 214 212 212 215 219 225 223 220 224 226 227 233 233 233 232
214 213 215 218 218 218 212 207 209 208 209 211 212 212 211 207 202 201 204 204 209 214 217 216 217 217 214 216 212 215 218 223 226 222 222 227 229 230 234 230 234 234
210 212 215 218 218 218 206 206 208 206 206 214 217 212 205 203 201 204 204 207 207 212 210 214 216 219 216 219 213 221 221 227 227 220 221 226 228 224 229 226 231 235
214 213 210 211 209 204 206 209 211 208 211 213 218 205 204 199 200 201 202 202 203 206 209 210 213 218 216 219 215 221 223 227 229 219 222 228 232 222 223 224 228 234
205 200 206 205 206 205 208 211 211 210 210 213 203 207 197 201 200 203 197 194 190 196 200 203 207 216 215 215 216 222 224 228 230 222 225 231 232 232 226 224 226 232
206 204 203 200 204 204 209 211 212 210 209 198 201 211 192 196 199 198 190 187 190 199 206 209 208 214 212 205 215 223 230 226 229 226 227 234 226 235 230 227 225 230
208 207 201 200 200 202 207 209 211 207 190 191 200 199 192 190 192 186 185 184 194 206 210 214 211 211 204 199 212 219 225 227 224 222 226 228 229 232 231 226 227 230
207 204 197 200 202 205 206 209 202 194 179 188 192 177 180 197 172 172 166 173 188 203 211 222 232 233 225 213 216 218 224 229 226 226 227 229 231 233 230 224 227 232
205 197 195 198 203 202 205 197 187 176 174 179 166 171 171 151 136 135 143 156 181 197 206 209 221 225 234 243 240 233 234 238 237 236 233 235 234 234 230 225 228 229
206 198 200 200 200 200 196 182 170 166 167 171 164 163 151 148 150 136 148 158 158 167 167 195 211 219 219 238 257 274 276 275 275 265 261 254 251 247 242 235 236 237
201 201 200 199 196 191 172 162 168 168 160 166 162 152 153 147 136 133 108 133 135 132 144 157 164 149 152 144 149 150 134 43 287 296 285 289 292 293 289 274 260 257
206 202 197 194 179 163 163 160 147 147 148 134 127 131 140 148 152 144 126 104 117 112 118 120 136 132 128 122 142 181 171 187 184 152 319 325 329 337 346 341 318 302
195 190 173 155 151 149 151 151 148 138 124 119 112 111 97 104 111 121 125 105 78 88 83 88 118 154 127 131 207 188 179 188 191 185 183 244 293 317 305 300 324 340
185 177 170 157 152 166 169 154 145 141 133 127 120 114 105 112 106 107 125 139 146 133 142 156 201 146 132 185 213 208 212 200 185 192 192 198 228 265 285 263 246 255
176 190 172 180 184 162 159 159 157 149 142 140 135 123 135 139 132 134 139 149 151 171 179 205 177 108 126 178 197 229 240 226 205 213 205 201 204 221 249 278 285 275
193 184 185 189 168 179 170 166 152 152 159 158 143 145 150 132 140 157 151 162 167 182 199 163 119 123 138 142 145 143 76 281 269 250 228 214 209 222 234 245 282 315
188 188 191 182 190 175 165 158 161 161 167 167 179 170 144 154 172 159 180 187 176 187 173 145 143 122 135 121 123 128 129 194 226 215 221 230 220 223 229 223 210 198
188 187 189 189 175 167 165 166 170 185 179 170 154 157 167 165 163 181 184 176 186 165 148 148 143 151 128 121 123 95 59 258 219 218 229 222 197 149 101 86 73 168
190 191 192 183 177 175 174 180 183 173 170 175 170 174 174 177 178 175 176 178 164 147 143 144 143 134 120 109 90 82 14 214 211 215 110 93 84 82 86 78 55 74
189 193 191 179 178 179 182 186 184 179 176 170 162 160 156 152 166 165 170 162 152 144 139 142 141 127 139 135 168 185 136 175 147 120 123 118 100 93 82 75 74 81
191 189 187 183 182 181 189 186 179 179 171 163 159 166 166 172 178 171 161 149 146 149 146 149 145 158 163 161 190 208 170 192 155 131 128 121 114 107 94 81 73 75
191 188 186 183 180 189 191 187 176 164 169 170 169 167 173 178 164 151 150 154 151 157 159 150 165 173 113 184 204 204 190 184 169 141 135 125 118 102 102 93 76 70
191 187 181 178 185 192 181 177 180 177 163 155 157 159 166 158 151 147 145 147 146 148 147 139 147 136 236 189 181 177 164 169 162 146 133 138 136 129 115 100 68 48
182 182 182 181 189 182 179 178 158 150 163 161 159 161 157 156 149 146 146 142 135 138 130 137 139 171 188 146 159 168 159 151 157 144 150 146 139 135 115 53 42 23